Weather History for Eagle, CO

Change the Weather History Date:

Tuesday, September 17, 2013

  Actual Average Record
Temperature  
Mean Temperature 60 °F -  
Max Temperature 77 °F 73 °F 85 °F (1956)
Min Temperature 44 °F 35 °F 21 °F (1951)
Degree Days  
Heating Degree Days 4    
Growing Degree Days 10 (Base 50)    
Moisture  
Dew Point 48 °F    
Average Humidity 82    
Maximum Humidity 100    
Minimum Humidity 26    
Precipitation  
Precipitation 0.00 in - - ()
Sea Level Pressure  
Sea Level Pressure 30.17 in    
Wind  
Wind Speed 2 mph (SE)    
Max Wind Speed 17 mph    
Max Gust Speed 24 mph    
Visibility 10 miles    
Events      
Averages and records for this station are not official NWS values.
T = Trace of Precipitation, MM = Missing Value Source: NWS Daily Summary

Daily Weather History Graph

Daily Weather History Graph

Search for Another Location

Airport:

Trip Planner

Search our weather history database for the weather conditions in past years. The results will help you decide how hot, cold, wet, or windy it might be!

Date:

Astronomy

Sep. 17, 2013 Rise Set
Actual Time 6:50 AM MDT 7:12 PM MDT
Civil Twilight 6:23 AM MDT 7:39 PM MDT
Nautical Twilight 5:52 AM MDT 8:10 PM MDT
Astronomical Twilight 5:19 AM MDT 8:43 PM MDT
Moon 6:01 PM MDT (9/17) 4:49 AM MDT (9/17)
Length of Visible Light 13h 15m
Length of Day
12h 21m
Waxing Gibbous, 96% of the Moon is Illuminated
Sep 17
Waxing Gibbous
Sep 19
Full
Sep 26
Last Quarter
Oct 4
New
Oct 11
First Quarter

Hourly Weather History & Observations

Time (MDT) Temp. Windchill Dew Point Humidity Pressure Visibility Wind Dir Wind Speed Gust Speed Precip Events Conditions
12:15 AM 51.8 °F - 48.2 °F 88% 30.27 in 10.0 mi Calm Calm - N/A   Clear
12:35 AM 51.8 °F - 48.2 °F 88% 30.27 in 10.0 mi Calm Calm - N/A   Clear
12:55 AM 51.8 °F - 46.4 °F 82% 30.27 in 10.0 mi Calm Calm - N/A   Clear
1:15 AM 50.0 °F - 46.4 °F 87% 30.27 in 10.0 mi Calm Calm - N/A   Clear
1:35 AM 50.0 °F - 46.4 °F 87% 30.27 in 10.0 mi Calm Calm - N/A   Clear
1:55 AM 48.2 °F - 46.4 °F 93% 30.27 in 10.0 mi Calm Calm - N/A   Clear
2:15 AM 48.2 °F - 46.4 °F 93% 30.27 in 10.0 mi Calm Calm - N/A   Clear
2:35 AM 48.2 °F - 46.4 °F 93% 30.27 in 10.0 mi Calm Calm - N/A   Clear
2:55 AM 48.2 °F - 46.4 °F 93% 30.27 in 10.0 mi Calm Calm - N/A   Clear
3:15 AM 46.4 °F 45.2 °F 46.4 °F 100% 30.27 in 10.0 mi ESE 3.5 mph - N/A   Clear
3:35 AM 46.4 °F - 46.4 °F 100% 30.27 in 10.0 mi Calm Calm - N/A   Clear
4:15 AM 46.4 °F - 44.6 °F 93% 30.27 in 10.0 mi Calm Calm - N/A   Clear
4:35 AM 46.4 °F - 44.6 °F 93% 30.27 in 10.0 mi Calm Calm - N/A   Clear
4:55 AM 46.4 °F - 44.6 °F 93% 30.27 in 10.0 mi Calm Calm - N/A   Clear
5:15 AM 44.6 °F - 44.6 °F 100% 30.27 in 10.0 mi Calm Calm - N/A   Clear
5:35 AM 46.4 °F - 44.6 °F 93% 30.27 in 10.0 mi Calm Calm - N/A   Partly Cloudy
5:55 AM 44.6 °F - 44.6 °F 100% 30.27 in 10.0 mi Calm Calm - N/A   Scattered Clouds
6:15 AM 44.6 °F - 44.6 °F 100% 30.27 in 10.0 mi Calm Calm - N/A   Scattered Clouds
6:35 AM 44.6 °F - 42.8 °F 93% 30.28 in 10.0 mi Calm Calm - N/A   Mostly Cloudy
6:50 AM 44.6 °F - 44.6 °F 100% 30.28 in 10.0 mi Calm Calm - N/A   Partly Cloudy
7:50 AM 44.6 °F - 44.6 °F 100% 30.29 in 10.0 mi Calm Calm - N/A   Partly Cloudy
8:55 AM 50.0 °F - 46.4 °F 87% 30.28 in 10.0 mi Calm Calm - N/A   Partly Cloudy
9:54 AM 53.6 °F - 46.4 °F 77% 30.26 in 10.0 mi Calm Calm - N/A   Partly Cloudy
11:50 AM 64.4 °F - 46.4 °F 52% 30.19 in 10.0 mi Calm Calm - N/A   Partly Cloudy
11:59 AM 60.8 °F - 46.4 °F 59% 30.22 in 10.0 mi Calm Calm - N/A   Partly Cloudy
12:50 PM 71.6 °F - 46.4 °F 41% 30.13 in 10.0 mi Calm Calm - N/A   Scattered Clouds
1:50 PM 75.2 °F - 44.6 °F 34% 30.08 in 10.0 mi West 15.0 mph 24.2 mph N/A   Scattered Clouds
2:50 PM 77.0 °F - 39.2 °F 26% 30.07 in 10.0 mi SW 13.8 mph 19.6 mph N/A   Mostly Cloudy
3:50 PM 75.2 °F - 39.2 °F 27% 30.04 in 10.0 mi SW 17.3 mph 23.0 mph N/A   Mostly Cloudy
4:55 PM 71.6 °F - 46.4 °F 41% 30.03 in 10.0 mi West 5.8 mph - N/A   Mostly Cloudy
5:50 PM 55.4 °F - 53.6 °F 94% 30.09 in 10.0 mi South 5.8 mph - N/A   Mostly Cloudy
6:50 PM 62.6 °F - 53.6 °F 72% 30.07 in 10.0 mi North 4.6 mph - N/A   Mostly Cloudy
7:15 PM 62.6 °F - 55.4 °F 77% 30.07 in 10.0 mi East 5.8 mph - N/A   Mostly Cloudy
7:35 PM 60.8 °F - 55.4 °F 82% 30.07 in 10.0 mi ENE 5.8 mph - N/A   Partly Cloudy
7:55 PM 59.0 °F - 53.6 °F 82% 30.06 in 10.0 mi ENE 5.8 mph - N/A   Clear
8:15 PM 60.8 °F - 53.6 °F 77% 30.06 in 10.0 mi Calm Calm - N/A   Clear
8:35 PM 59.0 °F - 53.6 °F 82% 30.07 in 10.0 mi SSW 3.5 mph - N/A   Clear
8:55 PM 57.2 °F - 53.6 °F 88% 30.07 in 10.0 mi WSW 4.6 mph - N/A   Clear
9:15 PM 57.2 °F - 53.6 °F 88% 30.07 in 10.0 mi West 3.5 mph - N/A   Clear
9:35 PM 55.4 °F - 51.8 °F 88% 30.07 in 10.0 mi Calm Calm - N/A   Clear
9:55 PM 55.4 °F - 51.8 °F 88% 30.07 in 10.0 mi SW 3.5 mph - N/A   Clear
10:15 PM 53.6 °F - 51.8 °F 94% 30.07 in 10.0 mi Calm Calm - N/A   Clear
10:35 PM 53.6 °F - 51.8 °F 94% 30.07 in 10.0 mi ENE 6.9 mph - N/A   Partly Cloudy
10:55 PM 53.6 °F - 50.0 °F 88% 30.07 in 10.0 mi East 4.6 mph - N/A   Clear
11:15 PM 51.8 °F - 48.2 °F 88% 30.07 in 10.0 mi East 5.8 mph - N/A   Partly Cloudy
11:35 PM 51.8 °F - 48.2 °F 88% 30.06 in 10.0 mi East 3.5 mph - N/A   Partly Cloudy
11:55 PM 51.8 °F - 48.2 °F 88% 30.06 in 10.0 mi East 5.8 mph - N/A   Clear